Find Starlink 32902

NORAD ID: 62898 Int'l Des: 2025-024 Owner: SPXS Country: US Constellation: starlink operational
LEOCIRCULAR

当前视图

正在加载3D地球...

About Starlink 32902

Starlink 32902 (NORAD 62898) is a starlink constellation satellite (v2 mini) launched Feb 4, 2025 by SPXS of US. It operates in LEO, CIRCULAR orbit with a mass of 730.00 kg.

关于 Starlink 32902

正在加载描述...

即将过境

Passes for default location (London). Set your location on the main map for personalized predictions.

高度历史

Loading altitude history...

两行轨道根数

1 62898U 25024V 26171.17057832 .00012584 00000-0 46584-3 0 9996
2 62898 42.9992 106.2026 0001140 268.3146 91.7575 15.27594547 77943
Epoch: Jun 20, 2026 • Age: 49 hours

当前状态

高度 486.8 km
速度 7.63 km/s
星下点 43.16°N, 162.53°W
发射日期 Feb 4, 2025
运行时间 1.3 years
类型 internet

技术详情

分类 Payload
质量 730.00 kg
干质量 700.00 kg
总质量 730.00 kg
长度 0.30 m
直径 4.10 m
跨度 29.00 m
形状 Box + pan
制造商 SPXS
平台类型 Starlink V2M
阶段状态 In Orbit
所有者/国家 SPXS/US

Most Searched